Regional Weather Roundup
Issued by NWS New Orleans/Baton Rouge, LA

Home | Current Version | Previous Version | Graphics & Text | Print | Product List | Glossary On
Versions: 1 2 3 4 5 6 7 8 9 10 11 12 13 14 15 16 17 18 19 20 21 22 23 24 25 26 27 28 29 30 31 32 33 34 35 36 37 38 39 40 41 42 43 44 45 46 47 48 49 50
766
ASUS44 KLIX 171511
RWRLIX
NEW ORLEANS REGIONAL WEATHER ROUNDUP
NATIONAL WEATHER SERVICE NEW ORLEANS LA
1000 AM CDT FRI APR 17 2015

NOTE: "FAIR" INDICATES FEW OR NO CLOUDS BELOW 12,000 FEET WITH NO
      SIGNIFICANT WEATHER AND/OR OBSTRUCTIONS TO VISIBILITY.
      SKY/WX - SKY CONDITION AND SIGNIFICANT WEATHER.
      TMP - AIR TEMPERATURE.     DP    - DEWPOINT TEMPERATURE.
      RH  - RELATIVE HUMIDITY.   PRES  - PRESSURE.
      HI  - HEAT INDEX.          WCI   - WIND CHILL INDEX.

*  THESE STATIONS ARE NOT NWS OR FAA STATIONS AND ARE NOT UNDER
   NWS QUALITY CONTROL.

LAZ038-040-048-061>063-065>067-069-171600-
SOUTHEAST LOUISIANA

CITY           SKY/WX    TMP DP  RH WIND       PRES   REMARKS
N.O. AUDUBON     N/A     73  73  99 MISG        N/A
N.O. INTL ARPT PTSUNNY   74  68  81 SE9       29.99R
N.O. LAKEFRONT CLOUDY    75  69  81 S10       30.00R
SLIDELL        PTSUNNY   75  71  87 SE9       29.98S
BATON ROUGE    PTSUNNY   74  67  78 E8        29.99S
BOOTHVILLE     CLOUDY    74  71  91 SE16G24   29.99S
BELLE CHASSE   CLOUDY    74  69  85 S7        29.99R
BOGALUSA*        N/A     75  68  78 CALM      30.03R
GALLIANO*      CLOUDY    75  71  87 S6        29.98R
NEW ROADS*     CLOUDY    74  67  80 SE6       30.00R
GONZALES*      PTSUNNY   75  70  84 E8        29.99R
HAMMOND*       PTSUNNY   77  66  69 CALM      30.01S
HOUMA*         PTSUNNY   70  70 100 E5        29.99R
PORT FOURCHON* MOSUNNY   73  72  94 S13       30.01F

$$

MSZ070-080>082-171600-
SOUTHERN MISSISSIPPI

CITY           SKY/WX    TMP DP  RH WIND       PRES   REMARKS
MCCOMB         CLOUDY    72  68  87 SE7       30.02R
GULFPORT       CLOUDY    74  68  81 SE10      29.99S
BILOXI         CLOUDY    73  72  94 SE9       30.00R
PASCAGOULA     CLOUDY    74  69  85 S8        30.01R
STENNIS ARPT*  PTSUNNY   73  66  78 MISG      30.00S

$$

COASTAL OBSERVATIONS
LAKE AND NEARSHORE STATIONS

STATION/POSITION TIME  TEMP    WIND        PRES    WAVE
                       AIR SEA DIR/SP/G            HT/PER
                 (UTC) (F)     (DEG/KT/KT) (MB)    (FT/S)
PASCAGOULA       1400   75     140/ 12/ 17 1015.2
WAVELAND YACHT   1418   73 73  140/  7/ 10 1015.5
GRAND ISLE       1400   74 75  150/  9/ 12 1015.2
SOUTHWEST PASS   1400   72 63  120/ 15/ 17 1016.4
NEW CANAL        1400   72      CALM  /  3 1015.3
SHELL BEACH      1400   73 74  160/ 12/ 16 1014.3

OFFSHORE STATIONS

STATION/POSITION TIME  TEMP    WIND        PRES    WAVE
                       AIR SEA DIR/SP/G            HT/PER
                 (UTC) (F)     (DEG/KT/KT) (MB)    (FT/S)
64 S DAUPHIN ISL 1450   74 75  150/ 19/ 21 1015.9    4/ 6

$$




USA.gov is the U.S. government's official web portal to all federal, state and local government web resources and services.